SCP
-0 -0 -0 -0 -0 -0 -0 -0 -0 0 0 0 -0 -0 -0 -0 0 -0 0 0 0 0 0 0 0 0 0 0 0 0 0 0 0 0 0 0 0 0 0 0 0 0 0 0 0
-0 -0 -0 -0 -0 -0 -0 -0 0 0 -0 -0 -0 -0 -0 -0 0 -0 0 0 0 0 0 0 0 0 0 0 0 0 0 0 0 0 0 0 0 0 0 0 0 0 0 0 0
-0 -0 -0 -0 -0 -0 -0 0 -0 -0 -0 -0 -0 -0 -0 0 0 0 0 0 0 0 0 0 0 0 0 0 0 0 0 0 0 0 0 0 0 0 0 0 0 0 0 0 0
-0 -0 -0 -0 -0 -0 -0 0 0 -0 -0 -0 -0 -0 -0 0 0 0 0 0 0 0 0 0 0 0 0 0 0 0 0 0 0 0 0 0 0 0 0 -0 0 0 0 0 0
-0 -0 -0 -0 -0 -0 -0 -0 -0 -0 -0 -0 0 0 0 0 0 0 0 0 0 0 0 0 0 0 0 0 0 0 0 0 0 0 0 0 0 0 -0 0 0 0 0 0 0
0 0 0 -0 -0 -0 -0 0 -0 -0 0 0 0 0 0 0 0 0 0 0 0 0 0 0 0 0 0 0 0 0 0 0 0 0 0 0 0 0 0 0 0 0 0 0 0
0 0 0 0 -0 -0 -0 -0 -0 0 0 0 0 0 0 0 0 0 0 0 0 0 0 0 0 0 0 0 0 0 0 0 0 0 0 0 -0 -0 -0 0 0 0 0 0 0
0 0 0 0 0 0 0 -0 -0 0 0 0 0 0 0 0 0 0 0 0 0 0 0 0 0 0 0 0 0 0 0 0 0 0 0 0 0 0 0 0 0 0 0 0 0
0 0 0 0 0 0 -0 -0 0 0 0 0 0 0 0 0 0 0 0 0 0 0 0 0 0 0 0 0 0 0 0 0 0 0 0 0 0 0 0 0 0 0 0 0 0
0 0 0 0 0 0 0 0 0 0 0 0 0 0 0 0 0 0 0 0 0 0 0 0 0 0 0 0 0 0 0 0 0 0 0 0 0 0 0 0 0 0 0 0 0
-0 0 0 0 0 0 -0 -0 0 0 0 0 0 0 0 0 0 0 0 0 0 0 0 0 0 0 0 0 0 0 0 0 0 0 0 0 0 0 0 0 0 0 0 0 0
0 0 0 0 0 0 -0 0 0 0 0 0 0 0 0 0 0 0 0 0 0 0 0 0 0 0 0 0 0 0 0 0 0 0 0 0 0 0 0 0 0 0 0 0 0
0 0 0 0 0 0 0 0 0 0 0 0 0 0 0 0 0 0 0 0 0 0 0 0 0 0 0 0 0 0 0 0 0 0 0 0 0 0 0 0 0 0 0 0 0
0 0 0 0 0 0 0 0 0 0 0 0 0 0 0 0 0 0 0 0 0 0 0 0 0 0 0 0 0 0 0 0 0 0 0 0 0 0 0 0 0 0 0 0 0
0 0 0 0 0 0 0 0 0 0 0 0 0 0 0 0 0 0 0 0 0 0 0 0 0 0 0 0 0 0 0 0 0 0 0 0 0 0 0 0 0 0 0 0 0
0 0 0 0 0 0 0 0 0 0 0 0 0 0 0 0 0 0 0 0 0 0 0 0 0 0 0 0 0 0 0 0 0 0 -0 0 0 0 0 0 0 0 0 0 0
0 0 0 0 0 0 0 0 0 0 0 0 0 0 0 0 0 0 0 0 0 0 0 0 0 0 0 0 0 0 0 0 0 0 0 0 0 0 0 0 0 0 0 0 0
0 0 0 0 0 0 0 0 0 0 0 0 0 0 0 0 0 0 0 0 0 0 0 0 0 0 0 0 0 0 0 0 0 0 0 0 0 0 0 0 0 0 0 0 0
0 0 0 0 0 0 0 0 0 0 0 0 0 0 0 0 0 0 0 0 0 0 0 0 0 0 0 0 0 0 0 0 0 0 0 0 0 0 0 0 0 0 0 0 0
0 0 0 0 0 0 0 0 0 0 0 0 0 0 0 0 0 0 0 0 0 0 0 0 0 0 0 0 0 0 0 0 0 0 0 0 0 0 0 0 0 0 0 0 0
0 0 0 0 0 0 0 0 0 0 0 0 0 0 0 0 0 0 0 0 0 0 0 0 0 0 0 0 0 0 0 0 0 0 0 0 0 0 0 0 0 0 0 0 0
0 0 0 0 0 0 0 0 0 0 0 0 0 0 0 0 0 0 0 0 0 0 0 0 0 0 0 0 0 0 0 0 0 0 0 0 0 0 0 0 0 0 0 0 0
0 0 0 0 0 0 0 0 0 0 0 0 0 0 0 0 0 0 0 0 0 0 0 0 0 0 0 0 0 0 0 0 0 0 0 0 0 0 0 0 0 0 0 0 0
0 0 0 0 0 0 0 0 0 0 0 0 0 0 0 0 0 0 0 0 0 0 0 0 0 0 0 0 0 0 0 0 0 0 0 0 0 0 0 0 0 0 0 0 0
0 0 0 0 0 0 0 0 0 0 0 0 0 0 0 0 0 0 0 0 0 0 0 0 0 0 0 0 0 0 0 0 0 0 0 0 0 0 0 0 0 0 0 0 0
0 0 0 0 0 0 0 0 0 0 0 0 0 0 0 0 0 0 0 0 0 0 0 0 0 0 0 0 0 0 0 0 0 0 -0 0 0 0 0 0 0 0 0 0 0
0 0 0 0 0 0 0 0 0 0 0 0 0 0 0 0 0 0 0 0 0 0 0 0 0 0 0 0 0 0 0 0 0 0 0 0 0 0 0 0 0 0 0 0 0
Wind_Speed_500mb
22 23 22 22 20 21 21 20 17 15 12 11 8 5 7 18 36 26 25 27 29 26 22 21 16 8 8 7 7 3 9 15 16 11 7 8 14 22 18 32 35 35 37 41 46
24 25 26 24 24 22 20 18 16 14 12 10 8 5 2 4 12 38 28 28 28 26 24 24 14 10 6 6 6 6 8 12 10 12 18 26 24 26 20 33 41 35 35 29 34
23 24 24 24 23 22 21 20 16 14 13 11 9 7 7 7 4 19 24 26 26 27 24 20 10 6 7 6 11 6 7 11 8 12 16 21 33 33 35 31 26 26 37 39 40
27 26 26 26 26 26 25 19 15 15 14 12 8 13 15 13 3 19 25 27 26 26 22 14 11 2 3 2 9 8 5 8 11 11 16 24 31 33 39 52 49 44 43 39 32
27 28 26 27 27 27 25 17 16 14 14 10 8 8 9 9 9 17 24 24 21 24 26 17 21 6 2 4 5 7 8 16 20 26 29 31 41 36 50 45 45 39 33 33 33
27 29 28 27 28 29 26 18 17 14 15 11 11 9 6 4 10 19 26 23 17 20 19 22 11 6 5 5 6 15 24 29 14 15 23 28 43 35 20 16 21 25 32 33 41
29 31 33 31 32 31 27 17 18 14 11 3 10 11 22 8 13 20 29 21 13 17 10 13 10 9 6 2 11 13 14 20 7 10 22 17 39 18 22 18 29 41 48 46 34
29 30 31 30 33 32 31 17 16 16 9 4 2 6 6 7 8 20 26 12 15 15 9 10 11 6 10 8 3 12 4 15 3 6 4 12 23 7 20 33 48 40 34 24 28
29 32 30 28 36 36 38 20 15 17 7 7 6 7 4 8 9 23 30 13 10 11 10 8 8 6 9 9 4 6 13 24 21 17 16 6 35 28 46 39 39 27 15 20 30
26 30 33 31 30 35 39 19 16 10 9 3 10 3 7 10 10 20 27 11 4 5 4 4 2 2 9 14 9 19 19 21 32 20 26 33 44 29 36 27 14 6 13 26 39
28 27 30 32 33 35 37 20 13 4 15 8 3 2 8 18 3 16 28 9 7 6 1 6 1 5 8 9 10 17 23 30 38 32 24 27 44 33 7 2 4 9 25 37 51
23 26 29 31 37 31 32 16 13 11 7 5 5 6 9 16 6 16 23 6 9 5 7 0 3 3 8 10 15 19 22 24 22 10 36 29 35 34 13 8 9 20 35 52 69
25 33 30 30 32 28 27 25 18 8 8 3 5 3 7 7 4 12 18 7 6 4 6 3 6 5 5 12 17 26 11 30 40 51 19 19 23 12 18 13 14 23 49 65 72
32 32 31 33 24 31 23 31 25 7 1 6 4 5 6 7 2 8 13 4 4 5 8 8 2 6 12 8 14 12 26 40 37 18 11 12 13 23 6 11 5 43 61 70 70
39 32 28 27 30 24 24 28 22 5 8 4 4 4 9 6 11 1 8 3 7 2 2 6 7 8 7 5 11 16 38 38 17 11 15 7 10 12 4 9 28 48 70 76 72
36 30 27 30 31 26 23 23 12 5 11 2 5 6 7 4 4 12 3 2 3 5 10 10 4 6 7 20 8 25 25 23 9 7 9 8 12 13 13 15 41 58 73 73 70
39 36 29 27 23 24 19 14 6 6 1 1 2 5 2 5 2 6 3 1 5 6 1 6 5 2 4 12 7 20 19 10 6 8 18 8 16 7 7 17 38 49 70 69 63
30 26 27 29 25 22 13 4 9 1 4 2 3 5 5 5 2 6 6 4 5 4 5 7 5 6 2 3 6 7 7 6 13 19 23 19 10 11 4 25 51 54 61 62 62
26 31 30 24 23 16 5 7 7 2 4 2 3 3 1 4 6 4 6 1 5 1 3 6 6 7 3 2 2 4 5 4 9 13 8 7 12 26 6 29 44 52 63 63 62
26 25 25 22 23 14 4 8 6 2 1 2 5 2 4 4 6 4 5 6 8 2 1 2 11 3 4 4 2 3 3 4 6 11 15 17 21 12 29 37 34 38 52 60 63
28 9 11 18 18 9 6 7 5 3 2 4 3 5 9 5 5 5 3 7 6 8 2 5 1 3 4 13 4 7 6 5 4 7 9 14 10 4 15 24 32 35 53 58 61
20 6 12 22 6 1 3 2 2 4 6 7 7 9 7 5 7 7 5 5 10 12 5 8 3 10 6 5 1 5 6 7 6 2 11 15 18 10 6 16 34 42 52 55 56
10 9 21 27 6 5 1 4 5 9 7 5 6 11 3 7 7 9 5 3 18 13 5 7 5 10 7 5 5 9 13 16 8 7 22 12 12 11 9 23 36 39 49 53 58
14 5 6 19 8 2 4 7 7 8 7 8 5 6 8 8 10 5 7 8 16 12 7 6 7 13 15 12 3 14 18 21 18 11 22 28 39 32 12 16 27 41 43 48 50
13 8 11 8 12 16 9 5 7 8 10 15 6 23 14 7 6 10 14 6 12 13 11 6 10 12 27 31 30 33 30 25 31 35 17 31 17 30 25 14 14 31 37 52 47
14 13 14 9 8 23 17 12 15 9 16 12 15 9 24 11 11 3 7 11 10 18 14 8 5 5 13 13 13 25 34 32 31 32 38 42 49 26 9 13 20 28 38 45 50
40 22 11 19 14 11 11 14 16 17 23 10 21 10 15 26 28 13 6 3 5 12 21 11 5 3 11 8 17 16 16 20 13 18 14 17 13 9 6 10 14 26 29 38 43
Wind_Direction_500mb
27 22 25 17 21 32 38 36 32 32 38 37 42 73 136 66 49 38 23 8 6 11 18 3 5 49 57 55 41 317 244 262 270 286 320 340 324 310 304 278 281 269 273 288 299
31 27 32 32 30 35 32 25 25 26 29 29 22 12 119 121 53 28 28 15 13 15 22 17 16 40 49 40 18 284 263 351 10 321 294 311 305 309 301 295 283 281 282 293 305
35 31 29 27 26 26 23 20 20 25 19 9 17 55 89 105 79 10 10 21 23 22 14 12 3 50 66 42 14 347 302 5 332 318 306 299 290 286 273 275 282 317 303 303 305
36 32 29 26 23 18 15 20 27 18 14 16 42 81 80 51 6 348 11 16 17 18 16 20 10 59 95 41 357 287 304 296 299 298 290 283 294 284 273 271 294 300 298 303 309
37 34 32 26 18 16 11 15 18 22 22 34 90 104 74 70 44 11 10 9 12 17 23 19 33 18 121 351 314 268 326 289 280 290 284 293 287 279 277 285 291 291 287 300 299
37 33 32 30 21 15 13 18 15 18 23 48 88 85 65 96 30 16 9 6 11 22 23 36 25 33 62 7 320 325 307 294 292 307 302 293 289 283 261 288 283 293 291 293 296
33 29 26 25 19 15 14 14 11 8 12 99 114 82 67 90 35 9 359 8 26 22 19 27 31 10 335 275 333 322 324 301 250 274 303 319 283 222 258 255 288 300 296 294 307
32 29 27 23 18 11 6 1 5 1 355 23 131 113 98 48 22 6 6 11 10 18 23 47 80 31 10 325 272 329 291 329 139 251 300 315 285 261 300 298 296 303 302 313 314
24 22 22 20 16 12 1 351 350 359 4 36 79 126 68 5 359 355 3 6 5 6 14 59 46 46 331 322 254 61 311 313 328 233 317 256 295 298 303 302 299 303 312 306 311
12 11 10 9 5 9 6 357 344 9 17 61 57 116 17 326 305 355 354 23 21 356 357 14 33 6 17 8 1 316 310 306 306 309 315 292 284 297 313 304 297 302 303 314 318
351 360 1 2 357 1 6 4 357 331 16 77 28 2 334 338 321 355 1 18 359 61 335 44 111 18 358 357 324 311 309 300 301 314 303 295 295 293 343 177 210 306 322 321 319
327 334 345 351 349 346 354 24 7 310 297 343 15 16 328 350 292 359 13 32 34 41 344 59 193 49 310 305 314 310 298 297 313 263 322 296 292 294 206 251 287 322 326 322 321
313 323 323 329 337 345 351 6 359 338 262 281 323 295 306 348 312 352 20 28 56 39 27 290 57 327 291 321 332 328 296 315 310 322 274 296 271 192 214 238 276 315 327 327 326
298 312 310 323 325 339 342 349 352 360 30 208 188 264 316 325 227 339 12 20 203 13 354 281 104 303 306 284 353 311 347 316 315 322 308 21 291 318 140 239 286 331 330 329 331
289 293 307 313 311 317 322 335 344 23 298 163 146 294 337 342 329 353 346 300 306 18 108 67 281 288 267 338 339 268 319 304 312 282 312 165 265 326 197 317 330 327 333 336 330
275 284 292 299 306 305 312 333 343 356 249 150 309 342 352 358 353 314 284 308 301 273 216 259 306 263 313 315 295 311 303 296 249 251 256 103 5 291 9 338 326 331 337 333 327
273 281 279 281 288 296 302 338 339 204 75 285 327 6 17 306 293 335 320 132 351 321 45 261 203 188 305 324 157 354 331 327 296 288 307 155 311 318 16 323 335 329 330 330 327
274 278 269 270 284 277 281 48 231 238 239 56 266 273 280 10 196 301 252 207 105 303 290 324 267 187 46 12 310 346 337 1 308 320 312 298 243 317 202 331 334 328 331 331 331
275 263 256 261 271 249 177 249 251 294 51 223 233 302 190 222 273 312 251 305 64 48 305 298 253 142 152 341 242 96 312 16 268 254 268 236 253 271 224 340 334 336 338 336 335
248 247 250 266 241 198 116 242 256 352 89 311 224 213 275 213 267 240 198 123 147 169 120 102 288 135 133 206 145 275 73 253 199 299 310 308 295 281 345 335 338 340 341 336 336
233 230 218 211 198 187 208 230 273 243 255 251 289 267 236 270 255 254 80 143 152 159 146 158 247 155 200 201 184 181 212 213 285 265 302 311 321 83 343 341 342 338 339 337 336
211 181 194 181 146 254 245 235 288 220 216 246 268 250 232 197 238 259 238 238 156 164 213 176 291 271 263 145 21 225 252 224 268 237 257 272 278 145 16 14 352 339 339 337 339
214 163 184 180 200 197 157 293 261 211 209 195 247 237 200 231 244 220 220 145 176 190 215 173 206 294 212 148 169 235 227 225 260 280 256 275 277 185 15 10 349 339 342 338 342
182 147 150 198 226 283 137 237 238 228 213 182 264 231 205 224 225 293 240 182 192 203 198 207 250 243 261 316 348 257 249 228 229 259 269 246 278 293 355 337 342 337 341 342 343
219 211 180 177 225 198 187 206 208 230 221 199 230 223 200 224 206 228 230 183 195 203 190 232 261 264 264 269 270 267 260 247 234 232 250 272 285 290 312 292 296 313 335 350 346
201 167 185 182 152 184 187 213 217 193 170 218 227 201 213 229 214 223 194 209 207 187 192 208 273 327 283 277 276 272 261 243 232 250 250 263 279 272 241 262 284 308 331 340 343
222 216 182 173 168 173 199 218 218 181 214 221 214 202 229 245 255 289 245 328 248 182 191 182 236 285 269 342 314 272 240 203 206 203 211 221 242 151 216 231 286 308 329 330 337
Wind_Speed_850mb
22 23 22 22 20 21 21 20 17 15 12 11 8 5 7 18 36 26 25 27 29 26 22 21 16 8 8 7 7 3 9 15 16 11 7 8 14 22 18 32 35 35 37 41 46
24 25 26 24 24 22 20 18 16 14 12 10 8 5 2 4 12 38 28 28 28 26 24 24 14 10 6 6 6 6 8 12 10 12 18 26 24 26 20 33 41 35 35 29 34
23 24 24 24 23 22 21 20 16 14 13 11 9 7 7 7 4 19 24 26 26 27 24 20 10 6 7 6 11 6 7 11 8 12 16 21 33 33 35 31 26 26 37 39 40
27 26 26 26 26 26 25 19 15 15 14 12 8 13 15 13 3 19 25 27 26 26 22 14 11 2 3 2 9 8 5 8 11 11 16 24 31 33 39 52 49 44 43 39 32
27 28 26 27 27 27 25 17 16 14 14 10 8 8 9 9 9 17 24 24 21 24 26 17 21 6 2 4 5 7 8 16 20 26 29 31 41 36 50 45 45 39 33 33 33
27 29 28 27 28 29 26 18 17 14 15 11 11 9 6 4 10 19 26 23 17 20 19 22 11 6 5 5 6 15 24 29 14 15 23 28 43 35 20 16 21 25 32 33 41
29 31 33 31 32 31 27 17 18 14 11 3 10 11 22 8 13 20 29 21 13 17 10 13 10 9 6 2 11 13 14 20 7 10 22 17 39 18 22 18 29 41 48 46 34
29 30 31 30 33 32 31 17 16 16 9 4 2 6 6 7 8 20 26 12 15 15 9 10 11 6 10 8 3 12 4 15 3 6 4 12 23 7 20 33 48 40 34 24 28
29 32 30 28 36 36 38 20 15 17 7 7 6 7 4 8 9 23 30 13 10 11 10 8 8 6 9 9 4 6 13 24 21 17 16 6 35 28 46 39 39 27 15 20 30
26 30 33 31 30 35 39 19 16 10 9 3 10 3 7 10 10 20 27 11 4 5 4 4 2 2 9 14 9 19 19 21 32 20 26 33 44 29 36 27 14 6 13 26 39
28 27 30 32 33 35 37 20 13 4 15 8 3 2 8 18 3 16 28 9 7 6 1 6 1 5 8 9 10 17 23 30 38 32 24 27 44 33 7 2 4 9 25 37 51
23 26 29 31 37 31 32 16 13 11 7 5 5 6 9 16 6 16 23 6 9 5 7 0 3 3 8 10 15 19 22 24 22 10 36 29 35 34 13 8 9 20 35 52 69
25 33 30 30 32 28 27 25 18 8 8 3 5 3 7 7 4 12 18 7 6 4 6 3 6 5 5 12 17 26 11 30 40 51 19 19 23 12 18 13 14 23 49 65 72
32 32 31 33 24 31 23 31 25 7 1 6 4 5 6 7 2 8 13 4 4 5 8 8 2 6 12 8 14 12 26 40 37 18 11 12 13 23 6 11 5 43 61 70 70
39 32 28 27 30 24 24 28 22 5 8 4 4 4 9 6 11 1 8 3 7 2 2 6 7 8 7 5 11 16 38 38 17 11 15 7 10 12 4 9 28 48 70 76 72
36 30 27 30 31 26 23 23 12 5 11 2 5 6 7 4 4 12 3 2 3 5 10 10 4 6 7 20 8 25 25 23 9 7 9 8 12 13 13 15 41 58 73 73 70
39 36 29 27 23 24 19 14 6 6 1 1 2 5 2 5 2 6 3 1 5 6 1 6 5 2 4 12 7 20 19 10 6 8 18 8 16 7 7 17 38 49 70 69 63
30 26 27 29 25 22 13 4 9 1 4 2 3 5 5 5 2 6 6 4 5 4 5 7 5 6 2 3 6 7 7 6 13 19 23 19 10 11 4 25 51 54 61 62 62
26 31 30 24 23 16 5 7 7 2 4 2 3 3 1 4 6 4 6 1 5 1 3 6 6 7 3 2 2 4 5 4 9 13 8 7 12 26 6 29 44 52 63 63 62
26 25 25 22 23 14 4 8 6 2 1 2 5 2 4 4 6 4 5 6 8 2 1 2 11 3 4 4 2 3 3 4 6 11 15 17 21 12 29 37 34 38 52 60 63
28 9 11 18 18 9 6 7 5 3 2 4 3 5 9 5 5 5 3 7 6 8 2 5 1 3 4 13 4 7 6 5 4 7 9 14 10 4 15 24 32 35 53 58 61
20 6 12 22 6 1 3 2 2 4 6 7 7 9 7 5 7 7 5 5 10 12 5 8 3 10 6 5 1 5 6 7 6 2 11 15 18 10 6 16 34 42 52 55 56
10 9 21 27 6 5 1 4 5 9 7 5 6 11 3 7 7 9 5 3 18 13 5 7 5 10 7 5 5 9 13 16 8 7 22 12 12 11 9 23 36 39 49 53 58
14 5 6 19 8 2 4 7 7 8 7 8 5 6 8 8 10 5 7 8 16 12 7 6 7 13 15 12 3 14 18 21 18 11 22 28 39 32 12 16 27 41 43 48 50
13 8 11 8 12 16 9 5 7 8 10 15 6 23 14 7 6 10 14 6 12 13 11 6 10 12 27 31 30 33 30 25 31 35 17 31 17 30 25 14 14 31 37 52 47
14 13 14 9 8 23 17 12 15 9 16 12 15 9 24 11 11 3 7 11 10 18 14 8 5 5 13 13 13 25 34 32 31 32 38 42 49 26 9 13 20 28 38 45 50
40 22 11 19 14 11 11 14 16 17 23 10 21 10 15 26 28 13 6 3 5 12 21 11 5 3 11 8 17 16 16 20 13 18 14 17 13 9 6 10 14 26 29 38 43
Wind_Direction_850mb
27 22 25 17 21 32 38 36 32 32 38 37 42 73 136 66 49 38 23 8 6 11 18 3 5 49 57 55 41 317 244 262 270 286 320 340 324 310 304 278 281 269 273 288 299
31 27 32 32 30 35 32 25 25 26 29 29 22 12 119 121 53 28 28 15 13 15 22 17 16 40 49 40 18 284 263 351 10 321 294 311 305 309 301 295 283 281 282 293 305
35 31 29 27 26 26 23 20 20 25 19 9 17 55 89 105 79 10 10 21 23 22 14 12 3 50 66 42 14 347 302 5 332 318 306 299 290 286 273 275 282 317 303 303 305
36 32 29 26 23 18 15 20 27 18 14 16 42 81 80 51 6 348 11 16 17 18 16 20 10 59 95 41 357 287 304 296 299 298 290 283 294 284 273 271 294 300 298 303 309
37 34 32 26 18 16 11 15 18 22 22 34 90 104 74 70 44 11 10 9 12 17 23 19 33 18 121 351 314 268 326 289 280 290 284 293 287 279 277 285 291 291 287 300 299
37 33 32 30 21 15 13 18 15 18 23 48 88 85 65 96 30 16 9 6 11 22 23 36 25 33 62 7 320 325 307 294 292 307 302 293 289 283 261 288 283 293 291 293 296
33 29 26 25 19 15 14 14 11 8 12 99 114 82 67 90 35 9 359 8 26 22 19 27 31 10 335 275 333 322 324 301 250 274 303 319 283 222 258 255 288 300 296 294 307
32 29 27 23 18 11 6 1 5 1 355 23 131 113 98 48 22 6 6 11 10 18 23 47 80 31 10 325 272 329 291 329 139 251 300 315 285 261 300 298 296 303 302 313 314
24 22 22 20 16 12 1 351 350 359 4 36 79 126 68 5 359 355 3 6 5 6 14 59 46 46 331 322 254 61 311 313 328 233 317 256 295 298 303 302 299 303 312 306 311
12 11 10 9 5 9 6 357 344 9 17 61 57 116 17 326 305 355 354 23 21 356 357 14 33 6 17 8 1 316 310 306 306 309 315 292 284 297 313 304 297 302 303 314 318
351 360 1 2 357 1 6 4 357 331 16 77 28 2 334 338 321 355 1 18 359 61 335 44 111 18 358 357 324 311 309 300 301 314 303 295 295 293 343 177 210 306 322 321 319
327 334 345 351 349 346 354 24 7 310 297 343 15 16 328 350 292 359 13 32 34 41 344 59 193 49 310 305 314 310 298 297 313 263 322 296 292 294 206 251 287 322 326 322 321
313 323 323 329 337 345 351 6 359 338 262 281 323 295 306 348 312 352 20 28 56 39 27 290 57 327 291 321 332 328 296 315 310 322 274 296 271 192 214 238 276 315 327 327 326
298 312 310 323 325 339 342 349 352 360 30 208 188 264 316 325 227 339 12 20 203 13 354 281 104 303 306 284 353 311 347 316 315 322 308 21 291 318 140 239 286 331 330 329 331
289 293 307 313 311 317 322 335 344 23 298 163 146 294 337 342 329 353 346 300 306 18 108 67 281 288 267 338 339 268 319 304 312 282 312 165 265 326 197 317 330 327 333 336 330
275 284 292 299 306 305 312 333 343 356 249 150 309 342 352 358 353 314 284 308 301 273 216 259 306 263 313 315 295 311 303 296 249 251 256 103 5 291 9 338 326 331 337 333 327
273 281 279 281 288 296 302 338 339 204 75 285 327 6 17 306 293 335 320 132 351 321 45 261 203 188 305 324 157 354 331 327 296 288 307 155 311 318 16 323 335 329 330 330 327
274 278 269 270 284 277 281 48 231 238 239 56 266 273 280 10 196 301 252 207 105 303 290 324 267 187 46 12 310 346 337 1 308 320 312 298 243 317 202 331 334 328 331 331 331
275 263 256 261 271 249 177 249 251 294 51 223 233 302 190 222 273 312 251 305 64 48 305 298 253 142 152 341 242 96 312 16 268 254 268 236 253 271 224 340 334 336 338 336 335
248 247 250 266 241 198 116 242 256 352 89 311 224 213 275 213 267 240 198 123 147 169 120 102 288 135 133 206 145 275 73 253 199 299 310 308 295 281 345 335 338 340 341 336 336
233 230 218 211 198 187 208 230 273 243 255 251 289 267 236 270 255 254 80 143 152 159 146 158 247 155 200 201 184 181 212 213 285 265 302 311 321 83 343 341 342 338 339 337 336
211 181 194 181 146 254 245 235 288 220 216 246 268 250 232 197 238 259 238 238 156 164 213 176 291 271 263 145 21 225 252 224 268 237 257 272 278 145 16 14 352 339 339 337 339
214 163 184 180 200 197 157 293 261 211 209 195 247 237 200 231 244 220 220 145 176 190 215 173 206 294 212 148 169 235 227 225 260 280 256 275 277 185 15 10 349 339 342 338 342
182 147 150 198 226 283 137 237 238 228 213 182 264 231 205 224 225 293 240 182 192 203 198 207 250 243 261 316 348 257 249 228 229 259 269 246 278 293 355 337 342 337 341 342 343
219 211 180 177 225 198 187 206 208 230 221 199 230 223 200 224 206 228 230 183 195 203 190 232 261 264 264 269 270 267 260 247 234 232 250 272 285 290 312 292 296 313 335 350 346
201 167 185 182 152 184 187 213 217 193 170 218 227 201 213 229 214 223 194 209 207 187 192 208 273 327 283 277 276 272 261 243 232 250 250 263 279 272 241 262 284 308 331 340 343
222 216 182 173 168 173 199 218 218 181 214 221 214 202 229 245 255 289 245 328 248 182 191 182 236 285 269 342 314 272 240 203 206 203 211 221 242 151 216 231 286 308 329 330 337